Regional Weather Roundup
Issued by NWS

Home | Current Version | Previous Version | Text Only | Print | Product List | Glossary On
Versions: 1 2 3 4 5 6 7 8 9 10 11 12 13 14 15 16 17 18 19 20 21 22 23 24 25 26 27 28 29 30 31 32 33 34 35 36 37 38 39 40 41 42 43 44 45 46 47 48 49 50
000
ASUS43 KLSX 252259
RWRMO

WEATHER SUMMARY FOR MISSOURI
NATIONAL WEATHER SERVICE SPRINGFIELD MO
600 PM CDT FRI JUL 25 2014

NOTE: "FAIR" INDICATES FEW OR NO CLOUDS BELOW 12,000 FEET WITH NO
       SIGNIFICANT WEATHER AND/OR OBSTRUCTIONS TO VISIBILITY.
       CURRENT SKY AND/OR WEATHER CONDITIONS ARE NOT AVAILABLE FOR
       CHILLICOTHE AND FARMINGTON.

MOZ001>031-035>038-043-044-053-054-260000-
...NORTHERN AND WESTERN MISSOURI...

CITY           SKY/WX    TMP DP  RH WIND       PRES   REMARKS
KANSAS CTY INT PTSUNNY   94  73  50 SW21G26   29.77F HX 103
KANSAS C DTWN  LGT RAIN  96  71  44 S17G28    29.76S HX 103
LEE`S SUMMIT   SUNNY     93  72  50 SW18G26   29.80F HX 101
ST JOSEPH      SUNNY     94  75  54 S10       29.73R HX 105
CHILLICOTHE      N/A     90  75  61 S13G24    29.77F HX 100
KIRKSVILLE     MOSUNNY   77  68  73 SE9       29.83F

$$
MOZ066>068-077>081-088>096-101>105-260000-
...SOUTHWEST MISSOURI...

CITY           SKY/WX    TMP DP  RH WIND       PRES   REMARKS
SPRINGFIELD    SUNNY     91  67  44 S17       29.92F HX  94
JOPLIN         SUNNY     92  70  48 SW15      29.90R HX  97

$$
MOZ032>034-039>042-045>050-055>058-069>072-260000-
...CENTRAL MISSOURI...

CITY           SKY/WX    TMP DP  RH WIND       PRES   REMARKS
COLUMBIA       MOSUNNY   88  72  58 S17G23    29.84F HX  94
JEFFERSON CITY MOSUNNY   89  70  53 S12G24    29.83F HX  94
ROLLA          MOSUNNY   86  66  51 S16G23    29.88F
SEDALIA        MOSUNNY   93  70  46 SW13G25   29.83F HX  99
OSAGE BEACH    MOSUNNY   90  70  51 S14G21    29.86F HX  95

$$
MOZ051-052-059>065-260000-
...EAST CENTRAL MISSOURI...

CITY           SKY/WX    TMP DP  RH WIND       PRES   REMARKS
ST LOUIS INTL  PTSUNNY   80  62  54 S16       29.89F
SPIRIT OF STL  MOSUNNY   80  63  55 S9G16     29.87F
ST CHARLES     SUNNY     78  61  55 S16       29.86F

$$
MOZ072>076-082>087-097>100-106>115-260000-
...SOUTH CENTRAL AND SOUTHEAST MISSOURI...

CITY           SKY/WX    TMP DP  RH WIND       PRES   REMARKS
CAPE GIRARDEAU PTSUNNY   77  64  64 S6        29.96F
FARMINGTON     PTSUNNY   79  63  57 S12G22    29.97F
POPLAR BLUFF   PTSUNNY   80  61  52 SE5       29.96F
WEST PLAINS    SUNNY     83  67  58 S12       29.99F

$$



USA.gov is the U.S. government's official web portal to all federal, state and local government web resources and services.